This demonstration page uses our WeatherBlox Daily Observations layout. Learn more.

Left ArrowRight Arrow

36.17497, -115.13722

Hourly Observations for July 4, 2021

Temp ( °F °C ) Dew Point ( °F °C ) Humidity (%) Winds ( mph kmh ) Pressure ( in mb ) Visibility ( mi km ) Precip ( " mm )
12:53 am 00:53 Clear 91 32.8 49 9.4 24 24 NW 13 20 29.79 1009 10 16 0.00 0.00
1:53 am 01:53 Clear 92 33.3 49 9.4 23 23 NW 13 20 29.79 1009 10 16 0.00 0.00
2:53 am 02:53 Clear 91 32.8 48 8.9 23 23 Calm 29.79 1009 10 16 0.00 0.00
3:53 am 03:53 Clear 88 31.1 50 10 27 27 NNW 5 7 29.79 1009 10 16 0.00 0.00
4:53 am 04:53 Clear 87 30.6 50 10 28 28 N 3 6 29.80 1009 10 16 0.00 0.00
5:53 am 05:53 Sunny 88 31.1 50 10 27 27 N 6 9 29.82 1010 10 16 0.00 0.00
6:53 am 06:53 Sunny 89 31.7 50 10 26 26 NW 7 11 29.84 1010 10 16 0.00 0.00
7:53 am 07:53 Sunny 91 32.8 50 10 25 25 WNW 12 19 29.85 1011 10 16 0.00 0.00
8:53 am 08:53 Sunny 96 35.6 47 8.3 19 19 N 6 9 29.85 1011 10 16 0.00 0.00
9:53 am 09:53 Sunny 97 36.1 48 8.9 19 19 WSW 9 15 29.85 1011 10 16 0.00 0.00
10:53 am 10:53 Sunny 98 36.7 47 8.3 17 17 VRB 5 7 29.84 1011 10 16 0.00 0.00
11:53 am 11:53 Sunny 98 36.7 48 8.9 18 18 SE 9 15 29.85 1011 10 16 0.00 0.00
12:53 pm 12:53 Sunny 101 38.3 46 7.8 15 15 ESE 6 9 29.84 1010 10 16 0.00 0.00
1:53 pm 13:53 Sunny 103 39.4 44 6.7 13 13 SE 8 13 29.81 1010 10 16 0.00 0.00
2:53 pm 14:53 Sunny 103 39.4 42 5.6 12 12 VRB 5 7 29.79 1009 10 16 0.00 0.00
3:53 pm 15:53 Sunny 105 40.6 40 4.4 11 11 ENE 6 9 29.76 1008 10 16 0.00 0.00
4:53 pm 16:53 Sunny 106 41.1 41 5 11 11 E 10 17 29.75 1007 10 16 0.00 0.00
5:53 pm 17:53 Sunny 105 40.6 41 5 11 11 VRB 5 7 29.73 1007 10 16 0.00 0.00
6:53 pm 18:53 Sunny 105 40.6 41 5 11 11 SSE 12 19 29.72 1007 10 16 0.00 0.00
7:53 pm 19:53 Sunny 103 39.4 43 6.1 13 13 SSE 7 11 29.73 1007 10 16 0.00 0.00
8:53 pm 20:53 Clear 102 38.9 35 1.7 10 10 SSW 7 11 29.74 1007 10 16 0.00 0.00
9:53 pm 21:53 Clear 98 36.7 37 2.8 12 12 SSE 3 6 29.76 1008 7 11 0.00 0.00
10:53 pm 22:53 Clear 97 36.1 38 3.3 13 13 S 5 7 29.76 1008 8 13 0.00 0.00
11:53 pm 23:53 Clear 97 36.1 37 2.8 12 12 SSW 7 11 29.76 1008 10 16 0.00 0.00

Powered by AerisWeather